Hourly Data Report for October 25, 2015

All times are specified in Local Standard Time (LST). Add 1 hour to adjust for Daylight Saving Time where and when it is observed.

CHARLOTTETOWN A
PRINCE EDWARD ISLAND

46°17'21.000" N
63°07'09.000" W
48.50 m
8300301
71706
YYG

Download Data

Hourly Data (October 2015)
Hourly Data Report for October 25, 2015
Temp Definition
°C
Dew Point Temp Definition
°C
Rel Hum Definition
%
Wind Dir Definition
10's deg

Wind Spd Definition
km/h
Visibility Definition
km
Stn Press Definition
kPa
Hmdx Definition


Wind Chill Definition


Weather Definition


TIME
00:00 Legend Double Dagger 5.5 3.2 85 18 24 24.1 102.05     LegendNANA
01:00 Legend Double Dagger 6.0 3.3 83 19 26 24.1 101.99     LegendNANA
02:00 Legend Double Dagger 5.8 2.8 81 18 24 24.1 101.94     Mainly Clear
03:00 Legend Double Dagger 6.4 2.9 78 19 25 24.1 101.90     LegendNANA
04:00 Legend Double Dagger 6.6 3.2 79 18 20 24.1 101.81     LegendNANA
05:00 Legend Double Dagger 7.2 3.8 79 18 21 24.1 101.71     Mostly Cloudy
06:00 Legend Double Dagger 7.7 4.5 80 17 27 24.1 101.61     LegendNANA
07:00 Legend Double Dagger 8.5 4.5 76 18 32 24.1 101.52     LegendNANA
08:00 Legend Double Dagger 9.1 5.1 76 19 32 24.1 101.49     Cloudy
09:00 Legend Double Dagger 9.7 5.9 77 18 33 24.1 101.41     LegendNANA
10:00 Legend Double Dagger 10.3 6.5 77 17 36 24.1 101.24     LegendNANA
11:00 Legend Double Dagger 11.4 7.4 76 17 37 24.1 101.13     Cloudy
12:00 Legend Double Dagger 12.5 7.6 72 18 37 24.1 101.00     LegendNANA
13:00 Legend Double Dagger 12.2 7.9 75 18 27 24.1 100.95     LegendNANA
14:00 Legend Double Dagger 12.6 8.1 74 18 31 24.1 100.86     Cloudy
15:00 Legend Double Dagger 12.6 8.3 75 19 28 24.1 100.83     LegendNANA
16:00 Legend Double Dagger 12.8 8.9 77 20 24 24.1 100.79     LegendNANA
17:00 Legend Double Dagger 11.6 10.7 94 19 26 19.3 100.78     Rain Showers
18:00 Legend Double Dagger 11.5 10.9 96 20 22 12.9 100.76     Rain Showers
19:00 Legend Double Dagger 11.6 10.5 93 21 24 12.9 100.70     Rain
20:00 Legend Double Dagger 11.4 10.6 95 21 17 12.9 100.68     Rain
21:00 Legend Double Dagger 11.2 10.6 96 22 16 12.9 100.69     Rain Showers
22:00 Legend Double Dagger 11.3 10.9 97 25 12 9.7 100.70     Rain Showers,Fog
23:00 Legend Double Dagger 11.4 10.8 96 24 14 24.1 100.69     Mostly Cloudy

Notes on Data Quality.

Legend

  • E = Estimated
  • M = Missing
  • NA = Not Available
  • ‡ = Partner data that is not subject to review by the National Climate Archives
Date modified: